Home   Weather   Borken   Past weeks

Flag for Germany Past Weather in Borken, North Rhine-Westphalia, Germany — Yesterday and Last 2 Weeks

Now
43 °F

Partly sunny.


Feels Like: 37 °F
Forecast: 41 / 50 °F
Wind: 9 mph from Southwest

Location: Niederrhein

Current Time: Feb 19, 2017 at 1:14:27 pm

Latest Report: Feb 19, 2017 at 12:20 pm


Visibility: 4 mi

Pressure: 30.15 "Hg

Humidity: 87%

Dew Point: 39 °F

Location of BorkenLocation

Past Weather in Borken — Graph

°F

Borken Temperature Yesterday

Maximum temperature yesterday: 48 °F (at 1:20 pm)
Minimum temperature yesterday: 37 °F (at 11:20 pm)
Average temperature yesterday: 43 °F

High & Low Weather Summary for the Past Weeks

 TemperatureHumidityPressure
High59 °F (Feb 15, 3:20 pm)100% (Feb 11, 7:20 am)30.51 "Hg (Feb 11, 7:20 am)
Low28 °F (Feb 9, 11:20 pm)50% (Feb 14, 12:20 pm)29.47 "Hg (Feb 4, 12:50 pm)
Average40 °F81%30.18 "Hg
* Reported Feb 4 12:20 pm — Feb 19 12:20 pm, Borken, Weather by CustomWeather, © 2017

Note: Actual official high and low records may vary slightly from our data, if they occured in-between our weather recording intervals... More about our weather records

Advertising

Borken Weather History for the Previous 24 Hours

Scroll right to see more
 ConditionsComfort  
Time TempWeatherWind HumidityBarometerVisibility
12:20 pm
Sun, Feb 19
43 °FPartly sunny.9 mph87%30.15 "Hg4 mi
11:20 am41 °FPartly sunny.9 mph87%30.15 "Hg5 mi
10:20 am41 °FDrizzle. Partly sunny.10 mph81%30.15 "Hg6 mi
9:20 am39 °FPassing clouds.10 mph87%30.18 "HgN/A
8:20 am37 °FClear.10 mph87%30.18 "Hg10 mi
7:50 am37 °FClear.9 mph87%30.18 "Hg10 mi
7:20 am37 °FClear.9 mph87%30.15 "Hg5 mi
6:50 am37 °FClear.8 mph87%30.18 "Hg4 mi
6:20 am37 °FClear.8 mph87%30.18 "Hg4 mi
5:50 am36 °FClear.7 mph93%30.18 "Hg5 mi
5:20 am36 °FClear.7 mph93%30.18 "Hg5 mi
4:50 am36 °FClear.7 mph93%30.21 "Hg10 mi
11:50 pm
Sat, Feb 18
37 °FClear.7 mph81%30.24 "Hg10 mi
11:20 pm37 °FClear.7 mph87%30.27 "Hg10 mi
10:50 pm39 °FClear.5 mph81%30.27 "Hg10 mi
10:20 pm39 °FClear.7 mph81%30.27 "Hg10 mi
9:20 pm39 °FClear.7 mph81%30.27 "Hg10 mi
8:20 pm39 °FClear.3 mph81%30.27 "Hg10 mi
5:20 pm48 °FPartly sunny.5 mph62%30.30 "HgN/A
4:20 pm48 °FPartly sunny.5 mph62%30.30 "HgN/A
3:50 pm48 °FPartly sunny.2 mph62%30.30 "HgN/A
3:20 pm48 °FPartly sunny.6 mph66%30.30 "HgN/A
2:50 pm48 °FPartly sunny.6 mph62%30.30 "HgN/A
2:20 pm48 °FPartly sunny.8 mph62%30.30 "HgN/A
1:50 pm48 °FScattered clouds.7 mph71%30.33 "HgN/A
1:20 pm48 °FScattered clouds.6 mph71%30.33 "HgN/A
Weather by CustomWeather, © 2017

See weather overviewHow to use our weather pages